{"data":{"norad_id":60111,"epoch":"2026-05-25T02:58:43.842720Z","epoch_age_seconds":74582,"freshness":"FRESH","line1":"1 60111U 24117W   26145.12411855  .00001343  00000+0  57457-4 0  9991","line2":"2 60111  53.1611  41.7547 0001249  76.8769 283.2371 15.30193171108595","mean_motion":15.30193171,"eccentricity":0.0001249,"inclination_deg":53.1611,"raan_deg":41.7547,"arg_perigee_deg":76.8769,"mean_anomaly_deg":283.2371,"bstar":5.7457e-5,"rev_number":10859,"period_min":94.105765683096,"perigee_km":474.37947343801,"apogee_km":476.09144587843,"semimajor_km":6853.3724596582,"source":"CELESTRAK","updated_at":"2026-05-25T13:38:19.164404Z"}}